Tracking 29892 objects as of 21-Nov-2024
HD Live streaming from Space Station
objects crossing your sky now

CZ-6A DEB

Track CZ-6A DEB now!
10-day predictions


NORAD ID: 54611
Int'l Code: 2022-151NM
Perigee: 604.5 km
Apogee: 744.7 km
Inclination: 98.6 °
Period: 98.1 minutes
Semi major axis: 7045 km
RCS: Unknown
Launch date: November 11, 2022
Source: People's Republic of China (PRC)
Launch site: Taiyaun Space Center, China (TSC)

Note: This is SATELLITE DEBRIS
Your satellite tracking list
Your tracking list is empty




NASA's NSSDC Master Catalog

Two Line Element Set (TLE):
1 54611U 22151NM  24325.03298619  .00026781  00000-0  43287-2 0  9992
2 54611  98.6436   4.5758 0099493 201.2776 158.4277 14.68011874106587
Source of the keplerian elements: AFSPC